{"data":{"norad_id":54184,"intl_designator":"2022-141AD","name":"STARLINK-5162","alt_names":[],"object_type":"PAYLOAD","status":"ACTIVE","operator":null,"country":"US","launch_date":"2022-10-28","launch_site_code":"AFWTR","launch_vehicle":null,"mission":null,"orbit_class":"UNKNOWN","rcs_meters":null,"size_class":null,"mass_kg":null,"dimensions":null,"purposes":["comms"],"wikipedia_slug":null,"has_3d_model":false,"image_url":null,"decayed_at":null,"tle_current":{"epoch":"2026-09-20T22:30:41.017536Z","epoch_age_seconds":51790,"freshness":"FRESH","line1":"1 54184U 22141AD  26263.93797474 -.00000832  00000+0 -15051-4 0  9991","line2":"2 54184  53.1605 194.3138 0001155  89.2438 270.8696 15.31695824215515","mean_motion":15.31695824,"eccentricity":0.0001155,"inclination_deg":53.1605,"raan_deg":194.3138,"arg_perigee_deg":89.2438,"mean_anomaly_deg":270.8696,"bstar":-1.5051e-5,"rev_number":21551,"period_min":94.013444277694,"perigee_km":469.96139696188,"apogee_km":471.54349042337,"semimajor_km":6848.8894436926,"source":"CELESTRAK","updated_at":"2026-09-21T09:00:33.093520Z"}}}